EW9318 Weather Reports


time (UTC)temp
C
wind
direction
speed
KPH
gust
KPH
rain 1hr
cm
rain 24hr
cm
rain mn
cm
humidity
%
barometer
mb
20260906110015 12 47 0.0 1.6 0.00 0.00 0.00 93 1017.3
20260906105515 12 45 0.0 3.2 0.00 0.00 0.00 93 1017.3
20260906105017 12 16 1.6 3.2 0.00 0.00 0.00 93 1017.3
20260906104515 12 19 0.0 3.2 0.00 0.00 0.00 93 1017.4
20260906104015 12 18 0.0 6.4 0.00 0.00 0.00 93 1017.3
20260906103515 12 10 3.2 6.4 0.00 0.00 0.00 93 1017.3
20260906103015 12 14 3.2 4.8 0.00 0.00 0.00 93 1017.2
20260906102515 12 29 1.6 4.8 0.00 0.00 0.00 93 1017.2
20260906102015 12 31 1.6 4.8 0.00 0.00 0.00 93 1017.1
20260906101515 12 31 1.6 4.8 0.00 0.00 0.00 92 1017.1
20260906101015 13 37 0.0 3.2 0.00 0.00 0.00 92 1017.0
20260906100515 13 38 0.0 4.8 0.00 0.00 0.00 92 1017.1
20260906100015 13 39 1.6 4.8 0.00 0.00 0.00 92 1017.0
20260906095515 13 53 1.6 4.8 0.00 0.00 0.00 92 1017.0
20260906095057 13 52 3.2 6.4 0.00 0.00 0.00 92 1017.0
20260906094515 13 56 3.2 6.4 0.00 0.00 0.00 92 1017.0
20260906094015 13 53 3.2 6.4 0.00 0.00 0.00 92 1017.0
20260906093515 13 40 1.6 4.8 0.00 0.00 0.00 92 1017.0
20260906093015 13 0.0 0.0 0.00 0.00 0.00 91 1017.1
20260906092515 13 0.0 0.0 0.00 0.00 0.00 91 1017.0
20260906092035 13 0.0 0.0 0.00 0.00 0.00 91 1017.0
20260906091536 13 0.0 0.0 0.00 0.00 0.00 91 1017.0
20260906091035 13 0.0 0.0 0.00 0.00 0.00 91 1016.9
20260906090535 13 0.0 0.0 0.00 0.00 0.00 91 1016.9
20260906090056 13 0.0 1.6 0.00 0.00 0.00 91 1016.8
20260906085515 13 60 0.0 3.2 0.00 0.00 0.00 91 1016.6
20260906085015 13 44 0.0 3.2 0.00 0.00 0.00 91 1016.6
20260906084535 13 42 0.0 4.8 0.00 0.00 0.00 91 1016.6
20260906084015 13 44 0.0 4.8 0.00 0.00 0.00 91 1016.6
20260906083515 13 58 0.0 3.2 0.00 0.00 0.00 91 1016.5
20260906083015 13 54 0.0 4.8 0.00 0.00 0.00 92 1016.5
20260906082515 13 55 1.6 8.0 0.00 0.00 0.00 92 1016.5
20260906082015 13 67 3.2 8.0 0.00 0.00 0.00 92 1016.5
20260906081516 13 70 3.2 6.4 0.00 0.00 0.00 92 1016.3
20260906081015 13 62 1.6 4.8 0.00 0.00 0.00 92 1016.4
20260906080516 13 64 0.0 3.2 0.00 0.00 0.00 91 1016.4
20260906080015 14 64 0.0 1.6 0.00 0.00 0.00 91 1016.4
20260906075515 14 68 0.0 3.2 0.00 0.00 0.00 91 1016.4
20260906075015 14 81 0.0 3.2 0.00 0.00 0.00 91 1016.3
20260906074515 14 87 0.0 3.2 0.00 0.00 0.00 91 1016.3
20260906074017 14 64 0.0 4.8 0.00 0.00 0.00 91 1016.3
20260906073517 14 62 1.6 4.8 0.00 0.00 0.00 91 1016.2
20260906073017 14 42 1.6 3.2 0.00 0.00 0.00 91 1016.2
20260906072557 14 32 1.6 3.2 0.00 0.00 0.00 90 1016.2
20260906072017 15 40 1.6 4.8 0.00 0.00 0.00 90 1016.2
20260906071517 15 39 3.2 4.8 0.00 0.00 0.00 90 1016.3
20260906071015 15 46 0.0 3.2 0.00 0.00 0.00 89 1016.2
20260906070518 15 51 1.6 3.2 0.00 0.00 0.00 89 1016.3
20260906070017 15 48 0.0 3.2 0.00 0.00 0.00 88 1016.3
20260906065537 15 0.0 1.6 0.00 0.00 0.00 88 1016.4
20260906065017 15 38 0.0 3.2 0.00 0.00 0.00 88 1016.4
20260906064517 15 37 0.0 3.2 0.00 0.00 0.00 87 1016.5
20260906064017 15 0.0 0.0 0.00 0.00 0.00 87 1016.4
20260906063517 15 0.0 0.0 0.00 0.00 0.00 87 1016.4
20260906063017 16 0.0 3.2 0.00 0.00 0.00 86 1016.4
20260906062517 16 39 0.0 4.8 0.00 0.00 0.00 87 1016.4
20260906062017 16 60 0.0 6.4 0.00 0.00 0.00 87 1016.4
20260906061517 16 89 3.2 6.4 0.00 0.00 0.00 87 1016.3
20260906061017 16 110 3.2 6.4 0.00 0.00 0.00 86 1016.2
20260906060518 16 106 4.8 6.4 0.00 0.00 0.00 85 1016.2
20260906060017 16 92 3.2 6.4 0.00 0.00 0.00 84 1016.2
20260906055517 16 82 1.6 4.8 0.00 0.00 0.00 84 1016.4
20260906055017 17 77 1.6 4.8 0.00 0.00 0.00 84 1016.3
20260906054517 17 66 3.2 4.8 0.00 0.00 0.00 83 1016.3
20260906054038 17 49 1.6 4.8 0.00 0.00 0.00 83 1016.2
20260906053518 17 44 1.6 4.8 0.00 0.00 0.00 82 1016.2
20260906053017 17 50 1.6 6.4 0.00 0.00 0.00 82 1016.2
20260906052517 17 74 3.2 6.4 0.00 0.00 0.00 81 1016.1
20260906052017 17 86 3.2 6.4 0.00 0.00 0.00 81 1016.1
20260906051517 17 98 4.8 9.7 0.00 0.00 0.00 81 1016.1
20260906051016 17 83 4.8 9.7 0.00 0.00 0.00 81 1016.1
20260906050517 18 21 3.2 12.9 0.00 0.00 0.00 81 1016.0
20260906050017 18 44 6.4 12.9 0.00 0.00 0.00 81 1016.0
20260906045518 18 20 4.8 11.3 0.00 0.00 0.00 81 1015.8
20260906045016 18 64 4.8 11.3 0.00 0.00 0.00 81 1015.8
20260906044517 18 85 4.8 11.3 0.00 0.00 0.00 82 1015.7
20260906044017 18 86 4.8 9.7 0.00 0.00 0.00 82 1015.7
20260906043518 18 84 4.8 9.7 0.00 0.00 0.00 81 1015.7
20260906043017 18 76 3.2 8.0 0.00 0.00 0.00 81 1015.6
20260906042538 18 83 4.8 11.3 0.00 0.00 0.00 81 1015.6
20260906042017 18 79 4.8 11.3 0.00 0.00 0.00 81 1015.5
20260906041516 18 84 3.2 11.3 0.00 0.00 0.00 81 1015.5
20260906041016 18 84 6.4 14.5 0.00 0.00 0.00 81 1015.5
20260906040518 19 82 6.4 14.5 0.00 0.00 0.00 80 1015.5
20260906040016 19 81 6.4 14.5 0.00 0.00 0.00 80 1015.5
20260906035515 19 81 6.4 14.5 0.00 0.00 0.00 80 1015.5
20260906035015 19 85 8.0 12.9 0.00 0.00 0.00 81 1015.4
20260906034515 20 88 6.4 12.9 0.00 0.00 0.00 81 1015.4
20260906034015 20 80 4.8 12.9 0.00 0.00 0.00 82 1015.4
20260906033515 20 77 4.8 11.3 0.00 0.00 0.00 82 1015.3
20260906033015 20 79 4.8 11.3 0.00 0.00 0.00 81 1015.3
20260906032515 20 82 4.8 12.9 0.00 0.00 0.00 82 1015.4
20260906032055 20 81 4.8 12.9 0.00 0.00 0.00 82 1015.5
20260906031517 20 75 3.2 8.0 0.00 0.00 0.00 82 1015.6
20260906031017 20 70 4.8 9.7 0.00 0.00 0.00 83 1015.5
20260906030517 20 67 4.8 11.3 0.00 0.00 0.00 83 1015.4
20260906030017 20 81 4.8 11.3 0.00 0.00 0.00 83 1015.4
20260906025517 20 82 6.4 12.9 0.00 0.00 0.00 83 1015.4
20260906025018 20 84 4.8 12.9 0.00 0.00 0.00 83 1015.3
20260906024518 20 82 4.8 12.9 0.00 0.00 0.00 84 1015.3
20260906024017 20 79 4.8 12.9 0.00 0.00 0.00 84 1015.2
20260906023518 20 76 4.8 12.9 0.00 0.00 0.00 84 1015.0
20260906023037 20 75 6.4 12.9 0.00 0.00 0.00 85 1014.9
20260906022517 20 78 6.4 12.9 0.00 0.00 0.00 87 1014.9
20260906022017 20 76 4.8 11.3 0.00 0.00 0.00 88 1015.0
20260906021517 20 72 1.6 8.0 0.00 0.00 0.00 89 1014.9
20260906021018 20 68 1.6 6.4 0.00 0.00 0.00 89 1014.9
20260906020517 20 80 1.6 6.4 0.00 0.00 0.00 89 1014.8
20260906020017 20 84 1.6 4.8 0.00 0.00 0.00 90 1014.8
20260906015517 20 56 0.0 4.8 0.00 0.00 0.00 90 1014.8
20260906015017 20 52 1.6 4.8 0.00 0.00 0.00 90 1014.8
20260906014517 20 47 0.0 3.2 0.00 0.00 0.00 90 1014.9
20260906014017 20 0.0 0.0 0.00 0.00 0.00 90 1014.8
20260906013517 20 0.0 0.0 0.00 0.00 0.00 89 1014.9
20260906013017 20 0.0 0.0 0.00 0.00 0.00 89 1014.8
20260906012518 20 0.0 0.0 0.00 0.00 0.00 89 1014.6
20260906012017 21 0.0 1.6 0.00 0.00 0.00 89 1014.6
20260906011517 21 37 0.0 1.6 0.00 0.00 0.00 89 1014.5
20260906011018 21 0.0 0.0 0.00 0.00 0.00 88 1014.4
20260906010517 21 0.0 0.0 0.00 0.00 0.00 88 1014.3
20260906010018 21 0.0 0.0 0.00 0.00 0.00 87 1014.3
20260906005517 21 0.0 0.0 0.00 0.00 0.00 87 1014.2
20260906005016 21 0.0 0.0 0.00 0.00 0.00 86 1014.1
20260906004517 21 0.0 0.0 0.00 0.00 0.00 86 1014.1
20260906004037 21 0.0 1.6 0.00 0.00 0.00 86 1014.0
20260906003517 21 37 0.0 1.6 0.00 0.00 0.00 85 1014.0
20260906003037 21 37 0.0 1.6 0.00 0.00 0.00 85 1014.0
20260906002516 22 37 0.0 3.2 0.00 0.00 0.00 85 1014.0
20260906002016 22 39 0.0 4.8 0.00 0.00 0.00 84 1014.0
20260906001517 22 39 1.6 4.8 0.00 0.00 0.00 84 1014.0
20260906001037 22 32 0.0 3.2 0.00 0.00 0.00 84 1014.0
20260906000516 22 31 0.0 3.2 0.00 0.00 0.00 83 1014.0
20260906000018 22 24 0.0 3.2 0.00 0.00 0.00 83 1014.0
20260905235517 22 35 0.0 3.2 0.00 0.00 0.00 83 1013.9
20260905235036 22 42 0.0 4.8 0.00 0.00 0.00 83 1013.9
20260905234517 22 42 1.6 6.4 0.00 0.00 0.00 83 1013.9
20260905234017 22 49 3.2 6.4 0.00 0.00 0.00 83 1013.9
20260905233517 22 44 1.6 4.8 0.00 0.00 0.00 84 1013.9
20260905233016 22 37 1.6 4.8 0.00 0.00 0.00 84 1013.9
20260905232516 22 47 0.0 6.4 0.00 0.00 0.00 84 1013.9
20260905232017 22 61 3.2 8.0 0.00 0.00 0.00 84 1013.9
20260905231537 22 69 3.2 8.0 0.00 0.00 0.00 84 1014.0
20260905231016 22 51 1.6 6.4 0.00 0.00 0.00 84 1013.9
20260905230516 22 60 0.0 6.4 0.00 0.00 0.00 85 1013.9
20260905230018 22 55 1.6 8.0 0.00 0.00 0.00 85 1013.9
20260905225517 22 58 4.8 8.0 0.00 0.00 0.00 84 1013.9
20260905225017 22 44 1.6 6.4 0.00 0.00 0.00 84 1013.8
20260905224516 22 48 1.6 8.0 0.00 0.00 0.00 84 1013.7
20260905224017 22 54 3.2 14.5 0.00 0.00 0.00 84 1013.7
20260905223536 22 66 8.0 16.1 0.00 0.00 0.00 83 1013.7
20260905223016 22 61 9.7 16.1 0.00 0.00 0.00 84 1013.6
20260905222517 22 58 4.8 12.9 0.00 0.00 0.00 85 1013.6
20260905222018 22 74 4.8 11.3 0.00 0.00 0.00 85 1013.5
20260905221518 22 74 4.8 12.9 0.00 0.00 0.00 85 1013.4
20260905221016 22 78 4.8 14.5 0.00 0.00 0.00 85 1013.4
20260905220517 22 87 9.7 14.5 0.00 0.00 0.00 85 1013.4
20260905220016 22 84 11.3 17.7 0.00 0.00 0.00 85 1013.5
20260905215536 22 79 9.7 17.7 0.00 0.00 0.00 85 1013.4
20260905215016 22 58 6.4 20.9 0.00 0.00 0.00 86 1013.4
20260905214517 22 68 11.3 20.9 0.00 0.00 0.00 86 1013.3
20260905214017 22 74 9.7 14.5 0.00 0.00 0.00 86 1013.2
20260905213518 22 79 8.0 14.5 0.00 0.00 0.00 87 1013.2
20260905213017 22 75 8.0 16.1 0.00 0.00 0.00 87 1013.2
20260905212518 22 86 6.4 16.1 0.00 0.00 0.00 87 1013.2
20260905212017 22 91 9.7 14.5 0.00 0.00 0.00 86 1013.2
20260905211516 22 63 8.0 14.5 0.00 0.00 0.00 87 1013.2
20260905211016 22 69 8.0 17.7 0.00 0.00 0.00 86 1013.2
20260905210516 22 67 9.7 17.7 0.00 0.00 0.00 86 1013.2
20260905210017 22 78 8.0 16.1 0.00 0.00 0.00 87 1013.2
20260905205539 22 69 8.0 16.1 0.00 0.00 0.00 87 1013.2
20260905205016 22 85 11.3 17.7 0.00 0.00 0.00 87 1013.3
20260905204518 22 72 11.3 17.7 0.00 0.00 0.00 87 1013.4
20260905204016 21 83 9.7 17.7 0.00 0.03 0.00 87 1013.4
20260905203516 21 78 11.3 19.3 0.00 0.03 0.00 87 1013.4
20260905203016 21 72 11.3 19.3 0.00 0.03 0.00 87 1013.5
20260905202516 21 70 11.3 20.9 0.00 0.03 0.00 88 1013.5
20260905202017 21 67 12.9 20.9 0.00 0.03 0.00 87 1013.6
20260905201516 21 70 12.9 17.7 0.00 0.03 0.00 87 1013.6
20260905201017 21 64 9.7 17.7 0.00 0.05 0.00 88 1013.6
20260905200537 21 68 8.0 17.7 0.00 0.05 0.00 88 1013.6
20260905200017 21 63 9.7 17.7 0.00 0.05 0.00 89 1013.6
20260905195536 21 65 8.0 16.1 0.00 0.05 0.00 89 1013.6
20260905195056 21 71 8.0 17.7 0.00 0.05 0.00 89 1013.6
20260905194516 21 64 8.0 19.3 0.00 0.05 0.00 89 1013.6
20260905194016 21 62 9.7 19.3 0.00 0.08 0.00 88 1013.6
20260905193516 21 50 8.0 19.3 0.00 0.08 0.00 88 1013.6
20260905193016 21 56 8.0 16.1 0.00 0.08 0.00 89 1013.5
20260905192536 21 56 6.4 16.1 0.00 0.08 0.00 89 1013.7
20260905192017 21 65 11.3 17.7 0.00 0.10 0.00 89 1013.7
20260905191517 21 74 8.0 17.7 0.00 0.10 0.00 89 1013.8
20260905191016 21 48 6.4 14.5 0.00 0.10 0.00 89 1013.7
20260905190516 21 52 4.8 17.7 0.00 0.13 0.00 90 1013.6
20260905190016 21 54 9.7 17.7 0.00 0.13 0.00 89 1013.7
20260905185517 21 50 8.0 16.1 0.00 0.13 0.00 89 1013.8
20260905185016 21 63 6.4 16.1 0.00 0.13 0.00 89 1013.8
20260905184517 21 46 6.4 17.7 0.00 0.15 0.00 90 1013.8
20260905184016 21 68 8.0 17.7 0.00 0.15 0.00 90 1013.7
20260905183537 21 68 6.4 14.5 0.00 0.18 0.00 90 1013.7
20260905183016 21 67 8.0 14.5 0.00 0.18 0.00 90 1013.7
20260905182516 21 50 6.4 16.1 0.00 0.18 0.00 90 1013.6
20260905182016 21 57 8.0 16.1 0.00 0.20 0.00 90 1013.7
20260905181516 21 66 8.0 16.1 0.00 0.20 0.00 90 1013.7
20260905181016 21 55 4.8 14.5 0.00 0.20 0.00 91 1013.6
20260905180536 21 43 8.0 14.5 0.00 0.23 0.00 91 1013.7
20260905180017 21 45 4.8 11.3 0.00 0.23 0.00 92 1013.8
20260905175536 21 39 4.8 12.9 0.00 0.23 0.00 92 1013.8
20260905175036 21 35 6.4 12.9 0.00 0.25 0.00 92 1013.8
20260905174556 21 67 6.4 11.3 0.00 0.25 0.00 93 1013.8
20260905174016 21 55 6.4 14.5 0.00 0.25 0.00 93 1013.8
20260905173516 21 74 8.0 14.5 0.00 0.25 0.00 93 1013.7
20260905173036 21 62 6.4 11.3 0.00 0.28 0.00 94 1013.7
20260905172516 21 53 3.2 14.5 0.00 0.28 0.00 94 1013.7
20260905172016 20 71 6.4 14.5 0.00 0.30 0.00 94 1013.7
20260905171516 20 45 4.8 11.3 0.00 0.30 0.00 94 1013.9
20260905171016 20 37 4.8 11.3 0.00 0.30 0.00 94 1013.9
20260905170516 20 35 4.8 12.9 0.00 0.33 0.00 94 1013.9
20260905170016 20 66 6.4 12.9 0.00 0.33 0.00 94 1014.0
20260905165536 20 65 6.4 14.5 0.00 0.38 0.00 94 1013.9
20260905165016 20 54 6.4 14.5 0.00 0.38 0.00 94 1013.9
20260905164516 20 49 6.4 14.5 0.00 0.38 0.00 94 1013.8
20260905164016 20 53 4.8 14.5 0.00 0.41 0.00 94 1013.8
20260905163516 20 48 4.8 9.7 0.00 0.41 0.00 94 1013.8
20260905163016 20 39 4.8 14.5 0.00 0.43 0.00 94 1013.8
20260905162516 20 38 6.4 14.5 0.00 0.43 0.00 94 1013.9
20260905162016 20 18 6.4 12.9 0.00 0.46 0.00 94 1013.9
20260905161516 20 16 6.4 14.5 0.00 0.46 0.00 94 1013.8
20260905161016 20 18 6.4 16.1 0.00 0.46 0.00 94 1013.8
20260905160516 20 19 9.7 16.1 0.00 0.48 0.00 94 1013.8
20260905160016 20 40 6.4 14.5 0.00 0.48 0.00 94 1013.7
20260905155516 20 28 8.0 14.5 0.00 0.48 0.00 94 1013.7
20260905155017 20 48 4.8 9.7 0.00 0.51 0.00 94 1013.5
20260905154536 20 34 4.8 14.5 0.00 0.51 0.00 94 1013.5
20260905154016 20 46 6.4 14.5 0.00 0.51 0.00 94 1013.5
20260905153516 20 56 4.8 16.1 0.00 0.53 0.00 94 1013.6
20260905153016 20 58 6.4 16.1 0.00 0.53 0.00 94 1013.6
20260905152515 20 63 8.0 14.5 0.00 0.53 0.00 94 1013.6
20260905152016 20 28 4.8 12.9 0.00 0.56 0.00 94 1013.5
20260905151516 20 47 4.8 11.3 0.00 0.56 0.00 94 1013.5
20260905151015 20 57 3.2 12.9 0.00 0.58 0.00 94 1013.5
20260905150516 20 60 6.4 12.9 0.00 0.58 0.00 94 1013.5
20260905150036 20 39 4.8 11.3 0.00 0.58 0.00 94 1013.6
20260905145536 20 53 4.8 14.5 0.00 0.61 0.00 94 1013.5
20260905145015 20 29 8.0 14.5 0.00 0.61 0.00 94 1013.3
20260905144515 21 39 6.4 12.9 0.00 0.61 0.00 94 1013.2
20260905144015 21 15 6.4 16.1 0.00 0.64 0.00 94 1013.1
20260905143516 21 10 9.7 16.1 0.00 0.64 0.00 94 1013.2
20260905143016 21 15 8.0 16.1 0.00 0.64 0.00 93 1013.2
20260905142516 21 6 8.0 16.1 0.00 0.64 0.00 93 1013.2
20260905142037 21 12 9.7 16.1 0.00 0.66 0.00 94 1013.2
20260905141515 21 17 8.0 16.1 0.00 0.66 0.00 94 1013.2
20260905141015 21 73 3.2 11.3 0.00 0.66 0.00 94 1013.1
20260905140536 21 101 4.8 11.3 0.00 0.69 0.00 95 1013.1
20260905140015 21 78 3.2 11.3 0.00 0.69 0.00 95 1013.1
20260905135516 21 78 4.8 9.7 0.00 0.69 0.00 95 1013.0
20260905135017 21 85 3.2 9.7 0.00 0.71 0.00 95 1012.9
20260905134515 21 70 3.2 6.4 0.00 0.71 0.00 95 1013.0
20260905134016 21 90 1.6 6.4 0.00 0.71 0.00 95 1013.0
20260905133515 21 78 3.2 11.3 0.00 0.74 0.00 96 1013.0
20260905133117 21 83 4.8 11.3 0.00 0.74 0.00 96 1012.9
20260905132515 21 81 3.2 11.3 0.00 0.74 0.00 96 1012.9
20260905132035 21 94 3.2 9.7 0.00 0.74 0.00 96 1012.8
20260905131515 21 65 3.2 9.7 0.00 0.76 0.00 96 1012.8
20260905131015 21 69 3.2 8.0 0.00 0.76 0.00 96 1012.7
20260905130515 21 58 3.2 6.4 0.00 0.76 0.00 96 1012.8
20260905130015 20 90 1.6 6.4 0.00 0.79 0.00 96 1012.8
20260905125515 20 89 1.6 6.4 0.00 0.79 0.00 96 1012.8
20260905125015 20 84 1.6 4.8 0.00 0.79 0.00 96 1012.7
20260905124515 20 107 0.0 6.4 0.00 0.81 0.00 96 1012.8
20260905124035 20 125 1.6 9.7 0.00 0.81 0.00 96 1012.6
20260905123515 20 119 4.8 9.7 0.00 0.84 0.00 96 1012.5
20260905123036 20 105 6.4 9.7 0.00 0.84 0.00 96 1012.5
20260905122538 20 101 3.2 9.7 0.00 0.84 0.00 96 1012.5
20260905122015 20 84 1.6 6.4 0.00 0.86 0.00 96 1012.5
20260905121515 20 74 1.6 4.8 0.00 0.86 0.00 96 1012.6
20260905121015 20 70 3.2 4.8 0.00 0.86 0.00 96 1012.6
20260905120516 20 70 3.2 4.8 0.00 0.89 0.00 96 1012.6
20260905120057 20 79 1.6 4.8 0.00 0.89 0.00 96 1012.5
20260905115515 20 81 1.6 4.8 0.00 0.89 0.00 96 1012.5
20260905115035 20 94 0.0 6.4 0.00 0.91 0.00 96 1012.4
20260905114536 20 95 3.2 6.4 0.00 0.91 0.00 96 1012.3
20260905114015 20 102 3.2 6.4 0.00 0.91 0.00 96 1012.3
20260905113536 20 102 1.6 4.8 0.00 0.94 0.00 96 1012.3
20260905113057 20 84 1.6 8.0 0.00 0.94 0.00 96 1012.2
20260905112515 20 73 3.2 8.0 0.00 0.94 0.00 96 1012.1
20260905112015 20 66 3.2 6.4 0.00 0.94 0.00 96 1012.1
20260905111517 20 69 3.2 8.0 0.00 0.94 0.00 96 1012.1
20260905111015 20 64 3.2 8.0 0.00 0.94 0.00 96 1012.0
20260905110516 20 69 3.2 11.3 0.00 0.94 0.00 96 1012.1